Powrót do katalogu

MANGARO-II-Piscus

MAGNARO-II

AktywnyKrótkofalarstwoSSO
NORAD 68798·PAYLOAD·🇯🇵 Japan

Wystrzelony Apr 23, 2026 z Rocket Lab Launch Complex 1

Loading…

Następne Przeloty (najbliższe 24 godziny)

TLE

ŚwieżeSource: Space-Track

Epoka: Sep 14, 2026, 20:42 UTC

1 68798U 26088G   26257.86260825  .00003038  00000-0  19357-3 0  9993
2 68798  97.5201  45.4023 0020001 130.8443 229.4524 15.09329182 21829

Śledź MANGARO-II-Piscus w czasie rzeczywistym z AllMySat

Download on the App Store